TimeCST,TemperatureF,Dew PointF,Humidity,Sea Level PressureIn,VisibilityMPH,Wind Direction,Wind SpeedMPH,Gust SpeedMPH,PrecipitationIn,Events,Conditions,WindDirDegrees,DateUTC
12:15 AM,50.5,38.5,63,30.29,10.0,ESE,3.5,-,N/A,,Clear,110,2013-01-19 06:15:00
12:35 AM,50.2,39.0,66,30.28,10.0,East,3.5,-,N/A,,Clear,100,2013-01-19 06:35:00
12:55 AM,49.8,39.2,67,30.28,10.0,East,4.6,-,N/A,,Clear,100,2013-01-19 06:55:00
1:15 AM,48.4,39.4,71,30.28,10.0,ESE,4.6,-,N/A,,Clear,110,2013-01-19 07:15:00
1:35 AM,48.2,39.4,72,30.28,10.0,ESE,4.6,-,N/A,,Clear,110,2013-01-19 07:35:00
1:55 AM,47.3,38.8,72,30.27,10.0,Calm,Calm,-,N/A,,Clear,0,2013-01-19 07:55:00
2:15 AM,46.6,38.7,74,30.27,10.0,Calm,Calm,-,N/A,,Clear,0,2013-01-19 08:15:00
2:35 AM,44.4,37.6,77,30.26,10.0,Calm,Calm,-,N/A,,Clear,0,2013-01-19 08:35:00
2:55 AM,44.2,37.4,77,30.26,10.0,Calm,Calm,-,N/A,,Clear,0,2013-01-19 08:55:00
3:15 AM,46.0,39.4,78,30.25,10.0,Calm,Calm,-,N/A,,Clear,0,2013-01-19 09:15:00
3:35 AM,44.6,38.7,80,30.25,10.0,Calm,Calm,-,N/A,,Clear,0,2013-01-19 09:35:00
3:55 AM,41.4,36.9,84,30.25,10.0,Calm,Calm,-,N/A,,Clear,0,2013-01-19 09:55:00
4:15 AM,41.0,36.5,84,30.25,10.0,Calm,Calm,-,N/A,,Clear,0,2013-01-19 10:15:00
4:35 AM,39.7,34.7,82,30.25,10.0,Calm,Calm,-,N/A,,Clear,0,2013-01-19 10:35:00
4:55 AM,39.9,37.2,90,30.24,10.0,Calm,Calm,-,N/A,,Clear,0,2013-01-19 10:55:00
5:15 AM,38.7,35.2,87,30.24,10.0,Calm,Calm,-,N/A,,Clear,0,2013-01-19 11:15:00
5:35 AM,37.6,35.1,91,30.25,10.0,Calm,Calm,-,N/A,,Clear,0,2013-01-19 11:35:00
5:55 AM,38.3,35.6,90,30.25,10.0,East,3.5,-,N/A,,Clear,100,2013-01-19 11:55:00
7:15 AM,36.5,34.0,91,30.26,10.0,Calm,Calm,-,N/A,,Clear,0,2013-01-19 13:15:00
7:55 AM,39.0,36.7,91,30.26,10.0,East,3.5,-,N/A,,Clear,100,2013-01-19 13:55:00
8:15 AM,45.3,42.8,91,30.27,10.0,East,4.6,-,N/A,,Clear,100,2013-01-19 14:15:00
8:35 AM,50.4,43.7,78,30.27,10.0,ESE,4.6,-,N/A,,Clear,110,2013-01-19 14:35:00
9:35 AM,57.7,44.2,61,30.29,10.0,SE,4.6,-,N/A,,Clear,130,2013-01-19 15:35:00
9:55 AM,60.1,44.8,57,30.29,10.0,SE,4.6,-,N/A,,Clear,140,2013-01-19 15:55:00
10:15 AM,62.1,44.6,53,30.29,10.0,SE,6.9,-,N/A,,Clear,140,2013-01-19 16:15:00
10:35 AM,61.9,45.0,54,30.29,10.0,SSE,9.2,-,N/A,,Clear,150,2013-01-19 16:35:00
11:15 AM,65.3,43.9,46,30.28,10.0,SSE,11.5,-,N/A,,Clear,160,2013-01-19 17:15:00
11:35 AM,65.8,43.3,44,30.27,10.0,SSE,10.4,-,N/A,,Clear,150,2013-01-19 17:35:00
11:55 AM,67.3,42.1,40,30.26,10.0,SSE,10.4,17.3,N/A,,Clear,160,2013-01-19 17:55:00
12:15 PM,68.7,40.6,36,30.25,10.0,South,10.4,-,N/A,,Clear,180,2013-01-19 18:15:00
12:35 PM,69.6,40.8,35,30.23,10.0,SSE,10.4,-,N/A,,Clear,150,2013-01-19 18:35:00
12:55 PM,69.4,40.6,35,30.21,10.0,South,8.1,-,N/A,,Clear,190,2013-01-19 18:55:00
1:15 PM,69.8,41.7,36,30.20,10.0,South,9.2,-,N/A,,Clear,180,2013-01-19 19:15:00
1:35 PM,70.5,42.3,36,30.18,10.0,SSW,8.1,-,N/A,,Clear,200,2013-01-19 19:35:00
1:55 PM,69.6,42.6,38,30.18,10.0,South,6.9,-,N/A,,Clear,170,2013-01-19 19:55:00
2:15 PM,70.9,42.6,36,30.17,10.0,South,5.8,-,N/A,,Clear,190,2013-01-19 20:15:00
2:35 PM,70.9,41.9,35,30.16,10.0,South,4.6,-,N/A,,Clear,190,2013-01-19 20:35:00
2:55 PM,71.1,41.7,35,30.15,10.0,South,3.5,-,N/A,,Clear,190,2013-01-19 20:55:00
3:15 PM,71.8,40.6,32,30.14,10.0,South,6.9,-,N/A,,Clear,170,2013-01-19 21:15:00
3:35 PM,71.8,40.6,32,30.14,10.0,SE,5.8,-,N/A,,Clear,140,2013-01-19 21:35:00
3:55 PM,71.8,39.4,31,30.14,10.0,South,6.9,-,N/A,,Clear,180,2013-01-19 21:55:00
4:15 PM,71.6,39.6,31,30.14,10.0,SSE,6.9,-,N/A,,Clear,160,2013-01-19 22:15:00
4:35 PM,71.6,39.9,32,30.14,10.0,South,8.1,-,N/A,,Clear,190,2013-01-19 22:35:00
4:55 PM,71.2,39.4,31,30.14,10.0,South,6.9,-,N/A,,Clear,190,2013-01-19 22:55:00
5:15 PM,70.7,39.9,33,30.14,10.0,South,3.5,-,N/A,,Clear,180,2013-01-19 23:15:00
5:35 PM,70.2,40.5,34,30.13,10.0,South,5.8,-,N/A,,Clear,170,2013-01-19 23:35:00
5:55 PM,68.9,41.5,37,30.14,10.0,South,3.5,-,N/A,,Clear,180,2013-01-19 23:55:00
6:15 PM,67.1,41.9,40,30.14,10.0,Calm,Calm,-,N/A,,Clear,0,2013-01-20 00:15:00
6:35 PM,63.5,42.8,47,30.15,10.0,Calm,Calm,-,N/A,,Clear,0,2013-01-20 00:35:00
6:55 PM,59.5,43.0,54,30.16,10.0,Calm,Calm,-,N/A,,Clear,0,2013-01-20 00:55:00
7:15 PM,59.0,43.0,55,30.16,10.0,Calm,Calm,-,N/A,,Clear,0,2013-01-20 01:15:00
7:35 PM,55.2,41.7,60,30.17,10.0,Calm,Calm,-,N/A,,Clear,0,2013-01-20 01:35:00
7:55 PM,53.2,40.8,63,30.17,10.0,Calm,Calm,-,N/A,,Clear,0,2013-01-20 01:55:00
8:15 PM,52.2,40.1,64,30.18,10.0,Calm,Calm,-,N/A,,Clear,0,2013-01-20 02:15:00
8:35 PM,51.4,40.5,66,30.19,10.0,Calm,Calm,-,N/A,,Clear,0,2013-01-20 02:35:00
8:55 PM,50.5,40.5,68,30.20,10.0,Calm,Calm,-,N/A,,Clear,0,2013-01-20 02:55:00
9:15 PM,49.6,40.3,70,30.20,10.0,Calm,Calm,-,N/A,,Clear,0,2013-01-20 03:15:00
9:35 PM,47.8,38.5,70,30.20,10.0,Calm,Calm,-,N/A,,Clear,0,2013-01-20 03:35:00
9:55 PM,48.0,39.2,72,30.20,10.0,Calm,Calm,-,N/A,,Clear,0,2013-01-20 03:55:00
10:15 PM,47.7,39.2,72,30.20,10.0,Calm,Calm,-,N/A,,Clear,0,2013-01-20 04:15:00
10:35 PM,48.6,40.5,74,30.20,10.0,SE,3.5,-,N/A,,Clear,130,2013-01-20 04:35:00
11:15 PM,54.0,45.5,73,30.21,10.0,ESE,4.6,-,N/A,,Clear,110,2013-01-20 05:15:00
11:35 PM,54.0,45.9,74,30.21,10.0,ESE,5.8,-,N/A,,Clear,120,2013-01-20 05:35:00
11:55 PM,54.7,46.8,75,30.20,10.0,SE,3.5,-,N/A,,Clear,130,2013-01-20 05:55:00